Reflectivity
-20 -20 -20 -20 -20 -20 -20 -20 -20 -20 -20 -20 -20 -20 -20 -20 -20 -20 -20 -20 -20 -20 -20 -20 -20 -20 -20 -20 -20 -20 -20 -20
-20 -20 -20 -20 -20 -20 -20 -20 -20 -20 -20 -20 -20 -20 -20 -20 -20 -20 -20 -20 -20 -20 -20 -20 -20 -20 -20 -20 -20 -20 -20 -20
-20 -20 -20 -20 -20 -20 -20 -20 -20 -20 -20 -20 -20 -20 -20 -20 -20 -20 -20 -20 -20 -20 -20 -20 -20 -20 -20 -20 -20 -20 -20 -20
-20 -20 -20 -20 -20 -20 -20 -20 -20 -20 -20 -20 -20 -20 -20 -20 -20 -20 -20 -20 -20 -20 -20 -20 -20 -20 -20 -20 -20 -20 -20 -20
-20 -20 -20 -20 -20 -20 -20 -20 -20 -20 -20 -20 -20 -20 -20 -20 -20 -20 -20 -20 -20 -20 -20 -20 -20 -20 -20 -20 -20 -20 -20 -20
-20 -20 -20 -20 -20 -20 -20 -20 -20 -20 -20 -20 -20 -20 -20 -20 -20 -20 -20 -20 -20 -19 -20 -20 -19 -20 -20 -20 -20 -20 -20 -20
-20 -20 -20 -20 -20 -20 -20 -20 -20 -20 -20 -20 -20 -20 -20 -20 -20 -20 -20 -19 -14 -3 -20 -20 -20 -20 -20 -20 -20 -20 -20 -20
-20 -20 -20 -20 -20 -20 -20 -20 -20 -20 -20 -20 -20 -20 -20 -20 -20 -20 -19 -10 -15 -0 -20 -0 17 -4 -20 -20 -20 -20 -20 -20
-20 -20 -18 -20 -20 -20 -20 -20 -20 -20 -20 -20 -20 -20 -20 -20 -20 -20 -20 0 5 4 -14 -3 6 1 4 -19 -20 -20 -20 -20
-20 -20 -20 -20 -20 -20 -20 -20 -20 -20 -20 -20 -20 -20 -20 -20 -20 -20 6 3 9 0 12 13 9 -20 -20 -20 -20 -20 -20 -20
-20 -20 -20 -20 -20 -20 -20 -20 -20 -20 -20 -20 -20 -20 -20 -20 -19 1 9 -12 -5 16 18 15 -18 -20 -20 -20 -20 -20 -20 -20
-20 -19 -18 -20 -20 -20 -20 -20 -20 -20 -20 -20 -20 -20 -20 -20 -0 -4 -16 -0 12 17 -5 -20 -20 -20 -20 -20 -20 -20 -20 -20
-19 -20 -20 -20 -20 -20 -20 -20 -20 -20 -20 -20 -20 -20 -20 -20 -20 -20 -20 -14 -15 -20 -20 -20 -20 -20 -20 -20 -20 -20 -20 -20
-20 -20 -20 -20 -20 -20 -20 -20 -20 -20 -20 -20 -20 -20 -20 -20 -20 -20 -18 -11 -20 -20 -20 -20 -20 -20 -20 -20 -20 -20 -20 -20
-20 -20 -20 -20 -20 -20 -20 -20 -20 -20 -20 -20 -20 -20 -20 -20 -20 -20 -20 -20 -20 -20 -20 -20 -20 -20 -20 -20 -20 -20 -20 -20
-20 -20 -20 -20 -20 -20 -20 -20 -20 -20 -20 -20 -20 -20 -20 -20 -19 -20 -20 -20 -20 -20 -20 -20 -20 -20 -20 -20 -20 -20 -20 -20
-20 -20 -20 -20 -20 -20 -20 -20 -20 -20 -20 -20 -20 18 -19 -20 -20 -20 -20 -20 -20 -20 -20 -20 -20 -20 -20 -20 -20 -20 -20 -20
-20 -20 -20 -20 -20 -20 -20 -18 -10 -19 -18 -11 23 24 7 -19 -20 -20 -20 -20 -20 -20 -20 -20 -20 -20 -20 -20 -20 -20 -20 -20
-20 -20 -20 -20 -20 -20 -20 -6 18 -19 16 24 11 -12 -20 -20 -20 -20 -20 -20 -20 -20 -20 -20 -20 -20 -20 -20 -20 -20 -20 -20
Wind_Speed
10 10 6 7 4 3 3 4 5 4 2 4 2 4 5 2 4 5 6 4 4 3 3 4 3 2 1 3 2 3 4 5
5 6 8 7 3 5 5 5 5 3 3 2 3 3 3 3 4 5 6 4 6 4 3 1 1 1 2 2 2 3 4 4
6 4 6 5 5 5 7 7 6 5 4 4 4 4 5 5 4 6 5 6 4 4 4 3 1 2 3 3 3 2 3 4
5 0 2 5 6 6 7 8 8 8 9 5 4 3 3 2 3 3 6 8 7 6 5 3 2 1 2 2 3 5 4 3
4 1 2 4 8 7 7 7 8 8 9 7 8 5 7 7 6 6 9 10 7 7 4 3 2 2 3 3 3 2 3 4
6 6 4 2 1 7 7 7 8 9 7 9 8 6 5 3 3 4 3 3 2 1 2 3 3 3 4 5 6 6 4 4
5 6 5 5 1 5 6 7 10 10 8 8 9 9 5 4 4 1 1 3 4 7 7 6 6 5 5 5 5 7 6 5
5 7 7 5 6 5 5 8 11 10 9 9 9 9 8 7 5 2 2 3 2 4 5 7 4 4 6 6 6 6 6 7
6 6 5 6 6 7 7 9 10 9 12 12 9 9 5 5 3 3 4 2 1 4 3 2 4 4 5 6 5 6 7 7
7 6 7 6 6 6 8 10 12 10 9 7 6 6 6 5 6 6 3 1 2 3 4 3 5 6 7 7 5 7 7 8
6 5 7 9 12 9 11 8 7 7 9 5 5 6 7 6 6 6 2 3 3 3 3 5 6 7 7 7 6 7 8 7
5 3 4 8 9 12 14 9 7 5 5 5 6 4 6 6 5 4 5 4 5 5 6 6 8 9 8 8 9 10 11 11
11 11 8 10 9 14 18 9 6 2 3 7 4 4 5 5 4 2 1 3 7 5 8 9 10 10 9 10 11 11 11 12
15 16 11 10 13 17 18 11 5 2 6 6 4 3 3 2 2 2 4 8 6 8 9 9 10 10 11 11 11 12 12 12
16 12 12 12 14 17 13 12 4 4 5 5 6 5 4 2 2 4 5 6 7 8 9 10 10 11 12 12 13 12 12 11
17 17 16 15 16 16 10 13 3 4 4 5 2 4 3 7 3 5 5 6 8 8 10 10 10 9 9 9 7 7 8 10
19 18 17 18 15 12 11 12 5 2 4 6 6 8 5 3 5 4 6 7 7 8 8 9 10 9 10 10 7 6 8 10
16 13 16 16 13 9 9 10 8 7 6 4 5 8 6 4 4 6 6 7 7 7 8 9 9 9 11 13 14 8 10 11
19 15 15 12 8 7 6 7 5 2 2 7 10 4 1 3 5 6 6 6 7 8 8 8 8 8 18 20 20 13 12 14
Wind_Direction
203 183 168 145 160 192 224 188 215 205 214 249 161 184 240 150 206 176 171 169 212 273 170 164 201 248 106 49 311 307 294 279
351 127 126 143 185 175 238 236 230 176 239 233 244 218 233 214 229 162 176 204 197 230 278 39 175 266 26 233 246 318 314 292
24 60 142 158 199 231 211 231 223 188 222 218 230 215 224 203 211 170 179 223 235 217 222 219 261 63 325 298 260 262 266 292
8 111 291 175 202 215 248 233 230 204 202 241 223 214 292 300 237 193 191 209 209 230 232 221 236 200 255 321 317 309 281 309
8 146 233 229 213 198 215 256 245 236 197 208 246 222 212 228 233 237 226 192 212 209 236 260 254 235 253 259 274 321 320 295
2 344 356 221 340 194 207 235 252 250 242 209 209 229 239 245 264 252 177 154 164 134 47 355 329 348 354 342 330 314 296 284
348 317 321 344 230 182 200 227 251 251 247 241 204 209 231 249 226 19 51 66 56 54 44 41 25 4 352 347 325 316 305 297
11 341 338 356 339 322 245 224 234 242 242 241 230 201 202 226 249 198 173 89 67 54 47 25 356 342 323 310 301 290 287 282
337 321 332 338 349 332 299 291 285 251 237 235 212 203 185 189 183 102 64 57 128 90 69 257 290 301 284 274 271 271 272 271
342 335 333 6 348 317 288 290 303 299 298 260 215 176 141 116 105 104 106 10 296 62 10 309 276 263 264 266 264 265 259 264
350 350 15 360 341 329 330 292 294 317 334 20 67 83 92 83 77 82 81 39 10 282 315 274 272 269 265 263 264 265 264 265
355 16 4 1 344 345 331 312 320 332 346 85 83 88 101 98 104 110 49 357 331 299 278 281 276 274 272 272 267 266 266 267
6 351 336 355 355 341 324 305 299 346 57 98 110 98 112 129 144 124 165 267 265 273 271 271 276 277 277 274 273 274 273 273
350 331 2 357 343 338 313 317 309 64 107 122 123 153 165 169 347 345 269 256 290 278 283 284 285 282 281 278 277 278 276 274
339 3 349 340 336 317 311 320 288 134 152 154 162 177 212 280 235 315 269 272 278 289 287 287 284 281 279 280 283 280 277 275
355 338 329 330 320 312 330 318 291 156 173 177 156 41 351 257 222 253 276 281 280 280 284 279 281 282 279 280 303 309 302 294
335 320 332 314 317 313 339 323 310 131 75 32 355 290 277 252 255 278 275 273 289 283 284 290 289 291 304 310 310 305 295 288
318 316 306 300 333 359 334 349 23 28 24 347 290 267 243 253 287 282 293 289 286 293 297 295 299 302 309 332 326 308 296 284
314 307 302 329 342 334 350 338 331 38 293 257 235 226 289 321 295 296 290 300 302 301 298 300 313 321 323 315 308 298 287 277